Find Starlink 34459

NORAD ID: 64449 Int'l Des: 2025-130 Owner: SPXS Country: US Constellation: starlink operational
LEOCIRCULAR

Aktuelle Ansicht

3D-Globus wird geladen...

Über Starlink 34459

Beschreibung wird geladen...

Nächste Überflüge

Passes for default location (London). Set your location on the main map for personalized predictions.

Höhenverlauf

Loading altitude history...

Zweizeiliger Elementsatz

1 64449U 25130M 26146.13558839 .00032842 00000-0 97851-3 0 9991
2 64449 53.1593 88.5763 0001283 81.0980 279.0168 15.34412487 52562
Epoch: 26. Mai 2026 • Age: 14 hours

Aktueller Status

Höhe 481.9 km
Geschwindigkeit 7.62 km/s
Subsatellitenpunkt -53.23°S, 146.46°W
Startdatum 18. Juni 2025
Alter 0.9 years
Typ internet

Technische Details

Klassifizierung Payload
Masse 575.00 kg
Trockenmasse 530.00 kg
Gesamtmasse 575.00 kg
Länge 0.30 m
Durchmesser 4.10 m
Spannweite 29.00 m
Form Box + pan
Hersteller SPXS
Bus-Typ Starlink V2MO
Phasenstatus In Orbit
Besitzer/Staat SPXS/US

Most Searched